Regional Weather Roundup
Issued by NWS

Home | Current Version | Previous Version | Graphics & Text | Print | Product List | Glossary On
Versions: 1 2 3 4 5 6 7 8 9 10 11 12 13 14 15 16 17 18 19 20 21 22 23 24 25 26 27 28 29 30 31 32 33 34 35 36 37 38 39 40 41 42 43 44 45 46 47 48 49 50
113
ASUS45 KBOU 280207
RWRCO

WEATHER ROUNDUP FOR COLORADO
NATIONAL WEATHER SERVICE DENVER/BOULDER CO
800 PM MDT SAT AUG 27 2016

NOTE: "FAIR" INDICATES FEW OR NO CLOUDS BELOW 12000 FEET WITH NO
SIGNIFICANT WEATHER AND/OR OBSTRUCTIONS TO VISIBILITY.

COZ001>005-013-030-031-280300-
...NORTHWEST COLORADO...

CITY           SKY/WX    TMP DP  RH WIND       PRES   REMARKS
CRAIG          MOCLDY    69  37  30 SW8       30.15R
HAYDEN         FAIR      66  34  30 SW8       30.17R
MEEKER         FAIR      64  42  44 W6        30.18R
MOUNT WERNER   NOT AVBL
STEAMBOAT SPGS FAIR      67  30  24 CALM      30.20R
WALDEN         FAIR      55  27  33 W6        30.30R
$$

COZ006>008-011-280300-
...WEST CENTRAL VALLEYS...

CITY           SKY/WX    TMP DP  RH WIND       PRES   REMARKS
GRAND JUNCTION FAIR      71  45  39 E14       30.12R
MONTROSE       CLOUDY    65  45  48 S13       30.21S
EAGLE          FAIR      68  37  32 SW12      30.21R
RIFLE          FAIR      70  44  39 W12       30.14R
DELTA          NOT AVBL
NUCLA          FAIR     N/A N/A N/A E10       30.27S THUNDER
$$

COZ017>023-064>068-280300-
...SOUTHWEST COLORADO...

CITY           SKY/WX    TMP DP  RH WIND       PRES   REMARKS
DURANGO        LGT RAIN  58  49  72 NE10      30.27R
CORTEZ         CLOUDY    64  50  60 SW7       30.21R
PAGOSA SPRINGS CLOUDY    56  45  66 NE3       30.36S
TELLURIDE      FAIR      48  47  94 SE6       30.41S THUNDER
WOLF CREEK PAS FOG       36  36 100 S6        30.59R VSB 1
$$

COZ009-010-012-014-032>034-037-058>063-280300-
...CENTRAL COLORADO...

CITY           SKY/WX    TMP DP  RH WIND       PRES   REMARKS
ASPEN          FAIR      58  41  53 SE9       30.29R
BUENA VISTA    CLOUDY    59  43  56 CALM      30.32R
COPPER MTN     FAIR      46  32  57 S3        30.56R
BERTHOUD PASS  FAIR      41  28  60 W10       30.58R
COTTONWOOD PAS MOCLDY    54  36  50 W7        30.43R
GUNNISON       FAIR      55  45  67 CALM      30.35S
KREMMLING      MOCLDY    61  30  31 CALM      30.24R
LEADVILLE      FAIR      50  37  61 SE6       30.41R
MONARCH PASS   FAIR      43  34  70 N6        30.65S
SALIDA         CLOUDY    63  40  44 W9        30.35S
SUNLIGHT       FAIR      48  41  76 N6        30.51R
WILKERSON PASS CLOUDY    46  34  61 SW7       30.54R
$$

COZ069>075-280300-
...SAN LUIS VALLEY/SANGRE DE CRISTO MOUNTAINS...

CITY           SKY/WX    TMP DP  RH WIND       PRES   REMARKS
ALAMOSA        FAIR      55  45  68 NW13      30.30R
LA VETA PASS   MOCLDY    54  37  54 S10G17    30.43F
SAGUACHE       FAIR      55  43  62 NW13      30.33R
$$

COZ035-036-038>040-280300-
...NORTHERN COLORADO FRONT RANGE...

CITY           SKY/WX    TMP DP  RH WIND       PRES   REMARKS
DENVER INTL AP MOCLDY    69  37  30 SE10      30.07R
DMNS CITY PARK   N/A     71  42  34 SE3       30.07R
AURORA         PTCLDY    72  41  32 SE10      30.10R
FRONT RANGE AP MOCLDY    73  39  29 E8        30.10R
ERIE MUNI ARPT NOT AVBL
BOULDER MUN AP FAIR      73  37  27 CALM      30.06R
CENTENNIAL     FAIR      73  43  33 S13       30.11R
BROOMFIELD     MOCLDY    75  36  23 SE5       30.09R
FORT COLLINS   FAIR      73  39  29 SE6       30.04R
LONGMONT       FAIR      69  46  43 NW5       30.07R
$$

COZ041-046-047-076>085-087-088-280300-
...PIKES PEAK/PALMER DIVIDE AND SOUTHERN FOOTHILLS...

CITY           SKY/WX    TMP DP  RH WIND       PRES   REMARKS
COLO. SPRINGS  MOCLDY    71  46  40 E9        30.16R
A. F. ACADEMY  FAIR      68  44  42 E8        30.17R
SCHRIEVER AFB  NOT AVBL
ELLICOTT       NOT AVBL
FALCON         MOCLDY    64  47  54 E6        30.22R
FORT CARSON    FAIR      70  47  43 NE6       30.13R
LIMON          FAIR      64  48  56 E5        30.11R
MONUMENT HILL  FAIR      61  43  51 SE8       30.23R
TRINIDAD       FAIR      70  41  34 W6        30.11R
$$

COZ042>045-048>051-090-091-280300-
...NORTHEAST COLORADO...

CITY           SKY/WX    TMP DP  RH WIND       PRES   REMARKS
GREELEY ARPT   FAIR      70  46  43 SE6       30.04R
AKRON          FAIR      68  44  42 SE8       30.06R
BURLINGTON     FAIR      68  52  56 SE10      30.06R
WRAY           NOT AVBL
STERLING       FAIR      73  55  53 SE8       30.00R
HOLYOKE        FAIR      68  59  73 SE8       30.03R
FORT MORGAN    FAIR      71  46  39 SE7       30.05R
$$

COZ086-089-092>099-280300-
...SOUTHEAST COLORADO...

CITY           SKY/WX    TMP DP  RH WIND       PRES   REMARKS
PUEBLO         FAIR      80  44  27 E12       30.03R
LA JUNTA       FAIR      76  48  37 E8        30.02R
LAMAR          FAIR      78  57  48 S10       29.98R
SPRINGFIELD      N/A     72  58  61 S15       30.06R
$$




USA.gov is the U.S. government's official web portal to all federal, state and local government web resources and services.